N291BA EDNY-LIRI

Flight info

Callsign N291BA
Flight time 2h 4m
Altitude 29000
Route BEMKI1E BEMKI L607 ELMEM N606 GIRIS/N0286F190 Z905 VIC N503 CHI L612 ANC M736 SOR
Aircraft TBM8/L-SDFGRWY/S

Departure

Time 2026-04-23 17:34
Airport Bodensee Airport Friedrichshafen (EDNY)

Arrival

Time 2026-04-23 19:39
Airport Salerno Costa d'Amalfi Airport (LIRI)
Time Latitude Longitude Altitude Speed Heading
2026-04-23 16:12 47.66871 9.51290 1354 ft 0 kts 141°
2026-04-23 17:23 47.66869 9.51243 1356 ft 9 kts 310°
2026-04-23 17:24 47.66936 9.51177 1351 ft 16 kts 325°
2026-04-23 17:24 47.66909 9.51044 1350 ft 17 kts 238°
2026-04-23 17:24 47.66704 9.50695 1347 ft 26 kts 214°
2026-04-23 17:25 47.66521 9.50264 1339 ft 20 kts 239°
2026-04-23 17:25 47.66471 9.50112 1337 ft 14 kts 263°
2026-04-23 17:26 47.66515 9.49951 1336 ft 6 kts 301°
2026-04-23 17:26 47.66537 9.49897 1336 ft 0 kts 300°
2026-04-23 17:28 47.66539 9.49892 1336 ft 3 kts 301°
2026-04-23 17:28 47.66570 9.49831 1335 ft 12 kts 324°
2026-04-23 17:29 47.66629 9.49840 1336 ft 7 kts 64°
2026-04-23 17:29 47.66633 9.49854 1337 ft 0 kts 67°
2026-04-23 17:29 47.66633 9.49855 1337 ft 2 kts 70°
2026-04-23 17:30 47.66612 9.49855 1337 ft 12 kts 218°
2026-04-23 17:30 47.66547 9.49891 1336 ft 0 kts 278°
2026-04-23 17:32 47.66549 9.49873 1336 ft 7 kts 286°
2026-04-23 17:33 47.66610 9.49815 1335 ft 9 kts 21°
2026-04-23 17:33 47.66624 9.49838 1336 ft 2 kts 59°
2026-04-23 17:33 47.66710 9.50059 1342 ft 50 kts 60°
2026-04-23 17:33 47.66958 9.50715 1367 ft 92 kts 60°
2026-04-23 17:34 47.67305 9.51607 1599 ft 108 kts 57°
2026-04-23 17:34 47.67748 9.52620 1913 ft 126 kts 59°
2026-04-23 17:34 47.68628 9.55097 2835 ft 140 kts 61°
2026-04-23 17:35 47.69115 9.56364 3383 ft 142 kts 61°
2026-04-23 17:35 47.70110 9.58933 4403 ft 146 kts 61°
2026-04-23 17:35 47.70620 9.60248 4954 ft 148 kts 62°
2026-04-23 17:36 47.71118 9.61585 5437 ft 149 kts 65°
2026-04-23 17:36 47.71334 9.63090 5914 ft 153 kts 86°
2026-04-23 17:36 47.71387 9.64691 6380 ft 156 kts 87°
2026-04-23 17:36 47.71454 9.66310 6866 ft 158 kts 86°
2026-04-23 17:37 47.71528 9.67954 7302 ft 160 kts 86°
2026-04-23 17:37 47.71613 9.69601 7787 ft 160 kts 83°
2026-04-23 17:37 47.71810 9.72895 8725 ft 161 kts 84°
2026-04-23 17:38 47.71891 9.74561 9181 ft 163 kts 84°
2026-04-23 17:38 47.71967 9.76246 9639 ft 164 kts 84°
2026-04-23 17:38 47.72041 9.77943 10100 ft 165 kts 84°
2026-04-23 17:38 47.72117 9.79632 10526 ft 167 kts 83°
2026-04-23 17:39 47.72112 9.81362 10936 ft 170 kts 98°
2026-04-23 17:39 47.71566 9.82946 11351 ft 177 kts 123°
2026-04-23 17:39 47.70884 9.84473 11768 ft 177 kts 116°
2026-04-23 17:39 47.70279 9.86072 12189 ft 178 kts 115°
2026-04-23 17:40 47.69661 9.87681 12607 ft 180 kts 115°
2026-04-23 17:40 47.69026 9.89292 13020 ft 182 kts 116°
2026-04-23 17:40 47.68378 9.90911 13441 ft 183 kts 116°
2026-04-23 17:40 47.67723 9.92540 13853 ft 184 kts 116°
2026-04-23 17:41 47.67063 9.94182 14259 ft 186 kts 115°
2026-04-23 17:41 47.65942 9.97626 15010 ft 186 kts 109°
2026-04-23 17:41 47.65411 9.99383 15379 ft 187 kts 109°
2026-04-23 17:42 47.64340 10.02916 16107 ft 188 kts 109°
2026-04-23 17:42 47.63800 10.04696 16474 ft 190 kts 109°
2026-04-23 17:42 47.63263 10.06470 16821 ft 192 kts 109°
2026-04-23 17:43 47.62714 10.08275 17166 ft 193 kts 109°
2026-04-23 17:43 47.62161 10.10091 17524 ft 194 kts 109°
2026-04-23 17:43 47.61605 10.11920 17900 ft 195 kts 109°
2026-04-23 17:43 47.61053 10.13738 18274 ft 195 kts 108°
2026-04-23 17:44 47.60489 10.15589 18611 ft 196 kts 108°
2026-04-23 17:44 47.59949 10.17360 18908 ft 197 kts 108°
2026-04-23 17:44 47.58819 10.21077 19527 ft 199 kts 108°
2026-04-23 17:45 47.58247 10.22949 19835 ft 200 kts 108°
2026-04-23 17:45 47.57097 10.26710 20456 ft 201 kts 108°
2026-04-23 17:45 47.56519 10.28601 20759 ft 202 kts 108°
2026-04-23 17:46 47.55137 10.31443 21243 ft 216 kts 138°
2026-04-23 17:46 47.53894 10.32714 21518 ft 218 kts 138°
2026-04-23 17:46 47.52671 10.34037 21829 ft 218 kts 137°
2026-04-23 17:47 47.51452 10.35387 22087 ft 220 kts 136°
2026-04-23 17:47 47.50223 10.36748 22356 ft 221 kts 136°
2026-04-23 17:47 47.47746 10.39471 23003 ft 222 kts 136°
2026-04-23 17:48 47.46505 10.40833 23326 ft 223 kts 136°
2026-04-23 17:48 47.45252 10.42202 23631 ft 224 kts 136°
2026-04-23 17:48 47.43993 10.43578 23909 ft 225 kts 136°
2026-04-23 17:48 47.42729 10.44958 24115 ft 227 kts 136°
2026-04-23 17:49 47.41458 10.46342 24358 ft 227 kts 136°
2026-04-23 17:49 47.40171 10.47701 24588 ft 228 kts 138°
2026-04-23 17:49 47.38814 10.48944 24827 ft 231 kts 143°
2026-04-23 17:49 47.37403 10.50098 25048 ft 232 kts 143°
2026-04-23 17:50 47.35989 10.51250 25276 ft 232 kts 143°
2026-04-23 17:50 47.33141 10.53532 25722 ft 234 kts 144°
2026-04-23 17:50 47.31693 10.54656 25895 ft 236 kts 144°
2026-04-23 17:51 47.30260 10.55764 26162 ft 236 kts 144°
2026-04-23 17:51 47.28807 10.56895 26388 ft 236 kts 144°
2026-04-23 17:51 47.25890 10.59202 26838 ft 237 kts 143°
2026-04-23 17:52 47.24457 10.60342 26982 ft 238 kts 143°
2026-04-23 17:52 47.21535 10.62651 27282 ft 243 kts 143°
2026-04-23 17:52 47.20016 10.63861 27256 ft 252 kts 143°
2026-04-23 17:53 47.16784 10.66300 27242 ft 270 kts 149°
2026-04-23 17:53 47.15001 10.67341 27252 ft 279 kts 153°
2026-04-23 17:53 47.13159 10.68334 27257 ft 285 kts 153°
2026-04-23 17:54 47.11275 10.69354 27250 ft 291 kts 153°
2026-04-23 17:54 47.09362 10.70392 27234 ft 295 kts 153°
2026-04-23 17:54 47.05480 10.72516 27251 ft 303 kts 153°
2026-04-23 17:55 47.01476 10.74699 27239 ft 310 kts 153°
2026-04-23 17:55 46.99448 10.75826 27217 ft 312 kts 152°
2026-04-23 17:55 46.97420 10.76973 27219 ft 313 kts 153°
2026-04-23 17:56 46.95380 10.78129 27210 ft 315 kts 153°
2026-04-23 17:56 46.91264 10.80455 27240 ft 319 kts 153°
2026-04-23 17:56 46.89187 10.81627 27250 ft 320 kts 153°
2026-04-23 17:57 46.87100 10.82804 27224 ft 322 kts 153°
2026-04-23 17:57 46.85007 10.83979 27203 ft 322 kts 153°
2026-04-23 17:57 46.80815 10.86352 27223 ft 323 kts 153°
2026-04-23 17:58 46.78722 10.87542 27219 ft 323 kts 152°
2026-04-23 17:58 46.76684 10.88782 27346 ft 319 kts 150°
2026-04-23 17:58 46.74681 10.90120 27444 ft 315 kts 147°
2026-04-23 17:58 46.72720 10.91513 27563 ft 311 kts 147°
2026-04-23 17:59 46.70784 10.92910 27695 ft 309 kts 146°
2026-04-23 17:59 46.68866 10.94292 27750 ft 306 kts 147°
2026-04-23 17:59 46.66965 10.95659 27811 ft 302 kts 147°
2026-04-23 17:59 46.65092 10.96998 27970 ft 297 kts 146°
2026-04-23 18:00 46.63251 10.98309 28213 ft 292 kts 146°
2026-04-23 18:00 46.61445 10.99593 28493 ft 287 kts 146°
2026-04-23 18:00 46.59666 11.00858 28771 ft 282 kts 145°
2026-04-23 18:00 46.57918 11.02103 29034 ft 278 kts 145°
2026-04-23 18:01 46.56176 11.03344 29102 ft 280 kts 145°
2026-04-23 18:01 46.54408 11.04608 29126 ft 285 kts 145°
2026-04-23 18:01 46.52611 11.05889 29140 ft 290 kts 145°
2026-04-23 18:01 46.50777 11.07188 29116 ft 294 kts 146°
2026-04-23 18:02 46.48922 11.08499 29129 ft 298 kts 146°
2026-04-23 18:02 46.45176 11.11140 29227 ft 304 kts 146°
2026-04-23 18:03 46.41335 11.13838 29211 ft 309 kts 147°
2026-04-23 18:03 46.37441 11.16568 29226 ft 313 kts 147°
2026-04-23 18:04 46.33507 11.19325 29166 ft 314 kts 147°
2026-04-23 18:04 46.29562 11.22090 29205 ft 315 kts 147°
2026-04-23 18:05 46.25607 11.24854 29198 ft 316 kts 148°
2026-04-23 18:05 46.21641 11.27624 29185 ft 317 kts 147°
2026-04-23 18:06 46.17697 11.30352 29205 ft 310 kts 148°
2026-04-23 18:06 46.13864 11.33005 29217 ft 302 kts 147°
2026-04-23 18:06 46.12005 11.34308 29216 ft 300 kts 147°
2026-04-23 18:07 46.10135 11.35617 29208 ft 298 kts 147°
2026-04-23 18:07 46.08279 11.36913 29220 ft 296 kts 147°
2026-04-23 18:07 46.06428 11.38206 29212 ft 295 kts 147°
2026-04-23 18:07 46.04583 11.39492 29209 ft 294 kts 147°
2026-04-23 18:08 46.03340 11.40357 29202 ft 293 kts 148°
2026-04-23 18:08 46.00909 11.42048 29184 ft 292 kts 148°
2026-04-23 18:08 45.99079 11.43316 29194 ft 291 kts 148°
2026-04-23 18:08 45.97257 11.44579 29183 ft 291 kts 148°
2026-04-23 18:09 45.95434 11.45839 29185 ft 290 kts 148°
2026-04-23 18:09 45.93614 11.47101 29193 ft 290 kts 148°
2026-04-23 18:09 45.91795 11.48361 29185 ft 290 kts 148°
2026-04-23 18:09 45.89980 11.49614 29183 ft 290 kts 148°
2026-04-23 18:10 45.88162 11.50867 29175 ft 290 kts 148°
2026-04-23 18:10 45.86342 11.52120 29175 ft 290 kts 148°
2026-04-23 18:10 45.84525 11.53371 29174 ft 290 kts 148°
2026-04-23 18:10 45.82709 11.54622 29176 ft 290 kts 148°
2026-04-23 18:11 45.80888 11.55875 29168 ft 290 kts 148°
2026-04-23 18:11 45.79065 11.57127 29163 ft 290 kts 148°
2026-04-23 18:11 45.77268 11.58361 29158 ft 290 kts 148°
2026-04-23 18:11 45.75445 11.59610 29151 ft 290 kts 148°
2026-04-23 18:12 45.73625 11.60859 29145 ft 290 kts 148°
2026-04-23 18:12 45.71808 11.62105 29137 ft 290 kts 148°
2026-04-23 18:12 45.69987 11.63352 29129 ft 290 kts 148°
2026-04-23 18:12 45.68165 11.64599 29124 ft 290 kts 148°
2026-04-23 18:13 45.66345 11.65843 29119 ft 289 kts 148°
2026-04-23 18:13 45.64543 11.67121 29115 ft 288 kts 145°
2026-04-23 18:13 45.62845 11.68606 29114 ft 284 kts 139°
2026-04-23 18:13 45.61284 11.70320 29115 ft 282 kts 135°
2026-04-23 18:14 45.59728 11.72028 29116 ft 283 kts 136°
2026-04-23 18:14 45.58155 11.73714 29116 ft 283 kts 137°
2026-04-23 18:14 45.56580 11.75395 29119 ft 283 kts 137°
2026-04-23 18:14 45.55024 11.77057 29117 ft 283 kts 137°
2026-04-23 18:15 45.53454 11.78738 29121 ft 282 kts 136°
2026-04-23 18:15 45.51882 11.80424 29120 ft 282 kts 136°
2026-04-23 18:15 45.50313 11.82108 29122 ft 282 kts 137°
2026-04-23 18:15 45.48741 11.83796 29122 ft 282 kts 137°
2026-04-23 18:16 45.47172 11.85481 29125 ft 282 kts 137°
2026-04-23 18:16 45.45603 11.87165 29126 ft 282 kts 137°
2026-04-23 18:16 45.44028 11.88854 29121 ft 282 kts 137°
2026-04-23 18:17 45.40885 11.92222 29124 ft 282 kts 137°
2026-04-23 18:17 45.39313 11.93903 29128 ft 282 kts 137°
2026-04-23 18:17 45.37762 11.95559 29127 ft 283 kts 137°
2026-04-23 18:17 45.36189 11.97236 29127 ft 283 kts 137°
2026-04-23 18:18 45.34615 11.98913 29130 ft 283 kts 137°
2026-04-23 18:18 45.33041 12.00590 29130 ft 283 kts 137°
2026-04-23 18:18 45.31466 12.02266 29132 ft 283 kts 137°
2026-04-23 18:18 45.29891 12.03940 29132 ft 283 kts 137°
2026-04-23 18:19 45.28313 12.05618 29129 ft 283 kts 137°
2026-04-23 18:19 45.26737 12.07292 29133 ft 283 kts 137°
2026-04-23 18:19 45.25165 12.08967 29132 ft 283 kts 137°
2026-04-23 18:19 45.23592 12.10644 29134 ft 283 kts 137°
2026-04-23 18:20 45.22017 12.12321 29130 ft 283 kts 137°
2026-04-23 18:20 45.20441 12.13997 29135 ft 283 kts 137°
2026-04-23 18:20 45.18864 12.15675 29139 ft 283 kts 137°
2026-04-23 18:20 45.17287 12.17351 29138 ft 283 kts 137°
2026-04-23 18:21 45.15708 12.19026 29137 ft 283 kts 137°
2026-04-23 18:21 45.14149 12.20679 29138 ft 284 kts 137°
2026-04-23 18:21 45.12571 12.22352 29144 ft 284 kts 137°
2026-04-23 18:21 45.10988 12.24028 29138 ft 284 kts 137°
2026-04-23 18:22 45.09407 12.25701 29137 ft 284 kts 137°
2026-04-23 18:22 45.07818 12.27358 29139 ft 285 kts 139°
2026-04-23 18:22 45.06163 12.28914 29142 ft 286 kts 143°
2026-04-23 18:22 45.04440 12.30354 29139 ft 287 kts 144°
2026-04-23 18:23 45.03296 12.31292 29139 ft 287 kts 144°
2026-04-23 18:23 44.99250 12.34614 29144 ft 287 kts 144°
2026-04-23 18:24 44.95791 12.37454 29140 ft 288 kts 144°
2026-04-23 18:24 44.94061 12.38874 29140 ft 288 kts 144°
2026-04-23 18:24 44.92330 12.40294 29147 ft 288 kts 144°
2026-04-23 18:25 44.88870 12.43131 29141 ft 288 kts 144°
2026-04-23 18:25 44.87138 12.44550 29145 ft 288 kts 144°
2026-04-23 18:25 44.85407 12.45968 29146 ft 288 kts 144°
2026-04-23 18:25 44.83676 12.47384 29142 ft 288 kts 144°
2026-04-23 18:26 44.81941 12.48804 29147 ft 288 kts 144°
2026-04-23 18:26 44.80210 12.50218 29147 ft 288 kts 144°
2026-04-23 18:26 44.78499 12.51615 29147 ft 288 kts 144°
2026-04-23 18:26 44.76764 12.53032 29146 ft 288 kts 144°
2026-04-23 18:27 44.75028 12.54448 29144 ft 288 kts 144°
2026-04-23 18:27 44.73293 12.55862 29150 ft 288 kts 144°
2026-04-23 18:27 44.71555 12.57279 29148 ft 288 kts 145°
2026-04-23 18:27 44.69821 12.58690 29152 ft 288 kts 144°
2026-04-23 18:28 44.68086 12.60102 29151 ft 288 kts 145°
2026-04-23 18:28 44.66353 12.61511 29151 ft 288 kts 145°
2026-04-23 18:28 44.65203 12.62445 29153 ft 288 kts 145°
2026-04-23 18:28 44.63471 12.63852 29154 ft 288 kts 145°
2026-04-23 18:29 44.61736 12.65260 29156 ft 288 kts 145°
2026-04-23 18:29 44.59998 12.66669 29152 ft 288 kts 145°
2026-04-23 18:29 44.57699 12.68532 29155 ft 288 kts 145°
2026-04-23 18:29 44.55967 12.69934 29154 ft 288 kts 145°
2026-04-23 18:30 44.54794 12.70883 29157 ft 288 kts 145°
2026-04-23 18:30 44.53061 12.72284 29155 ft 288 kts 145°
2026-04-23 18:30 44.51345 12.73666 29156 ft 288 kts 145°
2026-04-23 18:30 44.49606 12.75063 29157 ft 288 kts 145°
2026-04-23 18:31 44.47872 12.76456 29158 ft 287 kts 145°
2026-04-23 18:31 44.46136 12.77848 29155 ft 287 kts 145°
2026-04-23 18:31 44.44397 12.79243 29155 ft 287 kts 145°
2026-04-23 18:31 44.42664 12.80629 29153 ft 286 kts 146°
2026-04-23 18:32 44.40946 12.81998 29151 ft 284 kts 145°
2026-04-23 18:32 44.39238 12.83363 29143 ft 282 kts 145°
2026-04-23 18:32 44.37543 12.84722 29153 ft 280 kts 145°
2026-04-23 18:32 44.35854 12.86075 29151 ft 279 kts 145°
2026-04-23 18:33 44.34174 12.87421 29155 ft 278 kts 145°
2026-04-23 18:33 44.32498 12.88763 29149 ft 277 kts 145°
2026-04-23 18:33 44.30828 12.90103 29149 ft 277 kts 145°
2026-04-23 18:33 44.29159 12.91442 29149 ft 276 kts 145°
2026-04-23 18:34 44.27492 12.92779 29152 ft 276 kts 145°
2026-04-23 18:34 44.25827 12.94113 29151 ft 275 kts 145°
2026-04-23 18:34 44.24167 12.95441 29152 ft 275 kts 145°
2026-04-23 18:34 44.22526 12.96753 29145 ft 275 kts 145°
2026-04-23 18:35 44.20868 12.98078 29143 ft 275 kts 145°
2026-04-23 18:35 44.19210 12.99401 29150 ft 274 kts 145°
2026-04-23 18:35 44.17549 13.00726 29156 ft 274 kts 145°
2026-04-23 18:35 44.15890 13.02048 29158 ft 274 kts 145°
2026-04-23 18:36 44.14235 13.03365 29160 ft 274 kts 145°
2026-04-23 18:36 44.12577 13.04684 29158 ft 274 kts 145°
2026-04-23 18:36 44.10920 13.06002 29153 ft 274 kts 145°
2026-04-23 18:36 44.09260 13.07322 29152 ft 274 kts 145°
2026-04-23 18:37 44.07623 13.08622 29159 ft 274 kts 145°
2026-04-23 18:37 44.05946 13.09952 29161 ft 274 kts 145°
2026-04-23 18:37 44.04317 13.11241 29162 ft 273 kts 145°
2026-04-23 18:37 44.02670 13.12547 29159 ft 272 kts 145°
2026-04-23 18:38 44.01020 13.13855 29156 ft 272 kts 145°
2026-04-23 18:38 43.99376 13.15158 29161 ft 272 kts 145°
2026-04-23 18:38 43.97734 13.16457 29161 ft 271 kts 145°
2026-04-23 18:38 43.96093 13.17755 29161 ft 271 kts 145°
2026-04-23 18:39 43.94453 13.19051 29163 ft 271 kts 145°
2026-04-23 18:39 43.92817 13.20341 29164 ft 271 kts 145°
2026-04-23 18:39 43.91178 13.21633 29154 ft 271 kts 145°
2026-04-23 18:39 43.89542 13.22921 29162 ft 270 kts 145°
2026-04-23 18:40 43.87905 13.24209 29162 ft 270 kts 145°
2026-04-23 18:40 43.86268 13.25497 29162 ft 270 kts 146°
2026-04-23 18:40 43.84633 13.26783 29159 ft 270 kts 146°
2026-04-23 18:40 43.83017 13.28052 29153 ft 270 kts 146°
2026-04-23 18:41 43.81381 13.29337 29161 ft 270 kts 146°
2026-04-23 18:41 43.79746 13.30619 29159 ft 270 kts 146°
2026-04-23 18:41 43.78114 13.31898 29161 ft 270 kts 146°
2026-04-23 18:41 43.76482 13.33177 29155 ft 270 kts 146°
2026-04-23 18:42 43.74848 13.34457 29162 ft 270 kts 146°
2026-04-23 18:42 43.73216 13.35734 29153 ft 270 kts 146°
2026-04-23 18:42 43.71585 13.37010 29156 ft 270 kts 146°
2026-04-23 18:42 43.69954 13.38285 29159 ft 269 kts 146°
2026-04-23 18:43 43.68321 13.39561 29160 ft 269 kts 146°
2026-04-23 18:43 43.66688 13.40835 29162 ft 269 kts 146°
2026-04-23 18:43 43.65054 13.42110 29160 ft 269 kts 146°
2026-04-23 18:43 43.63422 13.43382 29160 ft 269 kts 146°
2026-04-23 18:44 43.61792 13.44652 29158 ft 269 kts 146°
2026-04-23 18:44 43.60157 13.45926 29164 ft 269 kts 146°
2026-04-23 18:44 43.58526 13.47195 29165 ft 269 kts 146°
2026-04-23 18:44 43.56861 13.48404 29164 ft 271 kts 150°
2026-04-23 18:45 43.55146 13.49491 29164 ft 272 kts 152°
2026-04-23 18:45 43.53415 13.50539 29167 ft 272 kts 152°
2026-04-23 18:45 43.51703 13.51575 29171 ft 272 kts 152°
2026-04-23 18:45 43.49974 13.52632 29166 ft 272 kts 152°
2026-04-23 18:46 43.48252 13.53696 29169 ft 272 kts 151°
2026-04-23 18:46 43.46531 13.54768 29168 ft 271 kts 151°
2026-04-23 18:46 43.44811 13.55845 29165 ft 271 kts 151°
2026-04-23 18:46 43.43096 13.56921 29167 ft 271 kts 151°
2026-04-23 18:47 43.41378 13.58001 29171 ft 271 kts 151°
2026-04-23 18:47 43.39661 13.59079 29174 ft 271 kts 151°
2026-04-23 18:47 43.37940 13.60160 29174 ft 271 kts 151°
2026-04-23 18:47 43.36224 13.61238 29175 ft 271 kts 151°
2026-04-23 18:48 43.34508 13.62315 29176 ft 271 kts 151°
2026-04-23 18:48 43.32787 13.63395 29176 ft 271 kts 151°
2026-04-23 18:48 43.31071 13.64471 29177 ft 271 kts 151°
2026-04-23 18:48 43.29352 13.65547 29176 ft 271 kts 151°
2026-04-23 18:49 43.27630 13.66625 29173 ft 271 kts 151°
2026-04-23 18:49 43.25913 13.67699 29183 ft 271 kts 151°
2026-04-23 18:49 43.24217 13.68759 29178 ft 271 kts 151°
2026-04-23 18:49 43.22500 13.69832 29180 ft 271 kts 151°
2026-04-23 18:50 43.21337 13.70559 29181 ft 272 kts 151°
2026-04-23 18:50 43.19059 13.71980 29180 ft 272 kts 151°
2026-04-23 18:50 43.17339 13.73053 29179 ft 272 kts 151°
2026-04-23 18:50 43.15615 13.74128 29184 ft 272 kts 151°
2026-04-23 18:51 43.13889 13.75204 29179 ft 272 kts 151°
2026-04-23 18:51 43.12167 13.76276 29181 ft 272 kts 151°
2026-04-23 18:51 43.10442 13.77349 29182 ft 272 kts 151°
2026-04-23 18:51 43.08720 13.78420 29178 ft 272 kts 151°
2026-04-23 18:52 43.06996 13.79491 29180 ft 272 kts 151°
2026-04-23 18:52 43.05272 13.80562 29180 ft 272 kts 151°
2026-04-23 18:52 43.03548 13.81633 29178 ft 272 kts 151°
2026-04-23 18:52 43.01821 13.82705 29181 ft 272 kts 152°
2026-04-23 18:53 43.00094 13.83775 29183 ft 272 kts 152°
2026-04-23 18:53 42.98368 13.84843 29178 ft 272 kts 152°
2026-04-23 18:53 42.96664 13.85898 29182 ft 272 kts 152°
2026-04-23 18:53 42.94935 13.86968 29177 ft 272 kts 152°
2026-04-23 18:54 42.93209 13.88036 29184 ft 272 kts 152°
2026-04-23 18:54 42.91483 13.89103 29185 ft 272 kts 152°
2026-04-23 18:54 42.89755 13.90170 29180 ft 272 kts 152°
2026-04-23 18:54 42.88032 13.91234 29180 ft 272 kts 152°
2026-04-23 18:55 42.86302 13.92301 29176 ft 272 kts 152°
2026-04-23 18:55 42.84578 13.93364 29180 ft 272 kts 152°
2026-04-23 18:55 42.82851 13.94413 29176 ft 272 kts 154°
2026-04-23 18:55 42.80985 13.94958 29176 ft 276 kts 172°
2026-04-23 18:56 42.79714 13.95074 29175 ft 277 kts 174°
2026-04-23 18:56 42.77135 13.95186 29182 ft 277 kts 176°
2026-04-23 18:56 42.75204 13.95259 29187 ft 277 kts 175°
2026-04-23 18:56 42.73275 13.95346 29180 ft 277 kts 175°
2026-04-23 18:57 42.71349 13.95451 29177 ft 277 kts 175°
2026-04-23 18:57 42.69417 13.95570 29181 ft 277 kts 174°
2026-04-23 18:57 42.67492 13.95696 29178 ft 277 kts 174°
2026-04-23 18:57 42.65561 13.95828 29175 ft 277 kts 174°
2026-04-23 18:58 42.63635 13.95963 29174 ft 277 kts 174°
2026-04-23 18:58 42.61710 13.96099 29175 ft 277 kts 174°
2026-04-23 18:58 42.59784 13.96236 29172 ft 277 kts 174°
2026-04-23 18:58 42.57858 13.96373 29172 ft 277 kts 174°
2026-04-23 18:59 42.55933 13.96510 29161 ft 277 kts 174°
2026-04-23 18:59 42.54659 13.96602 29167 ft 277 kts 174°
2026-04-23 18:59 42.52204 13.96776 29163 ft 276 kts 174°
2026-04-23 18:59 42.50397 13.96904 29162 ft 276 kts 174°
2026-04-23 19:00 42.48477 13.97041 29164 ft 276 kts 174°
2026-04-23 19:00 42.46562 13.97180 29165 ft 276 kts 174°
2026-04-23 19:00 42.44641 13.97316 29169 ft 276 kts 174°
2026-04-23 19:00 42.42723 13.97451 29171 ft 276 kts 174°
2026-04-23 19:01 42.40804 13.97587 29159 ft 276 kts 174°
2026-04-23 19:01 42.38885 13.97724 29168 ft 276 kts 174°
2026-04-23 19:01 42.36971 13.97859 29187 ft 276 kts 174°
2026-04-23 19:01 42.35049 13.97996 29191 ft 276 kts 174°
2026-04-23 19:02 42.33781 13.98086 29186 ft 276 kts 174°
2026-04-23 19:02 42.31240 13.98265 29190 ft 276 kts 174°
2026-04-23 19:02 42.29320 13.98401 29190 ft 276 kts 173°
2026-04-23 19:02 42.27403 13.98537 29193 ft 276 kts 174°
2026-04-23 19:03 42.25478 13.98673 29198 ft 276 kts 174°
2026-04-23 19:03 42.23562 13.98808 29200 ft 276 kts 173°
2026-04-23 19:03 42.21640 13.98943 29201 ft 277 kts 173°
2026-04-23 19:03 42.19717 13.99079 29193 ft 277 kts 173°
2026-04-23 19:04 42.17795 13.99214 29192 ft 276 kts 173°
2026-04-23 19:04 42.15874 13.99350 29098 ft 279 kts 173°
2026-04-23 19:04 42.13893 13.99491 28805 ft 289 kts 173°
2026-04-23 19:04 42.11843 13.99634 28360 ft 301 kts 174°
2026-04-23 19:05 42.09708 13.99779 27913 ft 311 kts 174°
2026-04-23 19:05 42.07528 13.99919 27461 ft 316 kts 174°
2026-04-23 19:05 42.05354 14.00057 27006 ft 318 kts 174°
2026-04-23 19:05 42.03137 14.00202 26536 ft 319 kts 173°
2026-04-23 19:06 42.00912 14.00355 26095 ft 320 kts 173°
2026-04-23 19:06 41.98687 14.00509 25658 ft 320 kts 173°
2026-04-23 19:06 41.96460 14.00663 25237 ft 320 kts 173°
2026-04-23 19:06 41.94238 14.00818 24826 ft 319 kts 173°
2026-04-23 19:07 41.92024 14.00970 24407 ft 318 kts 173°
2026-04-23 19:07 41.89817 14.01123 23969 ft 317 kts 173°
2026-04-23 19:07 41.87619 14.01277 23496 ft 315 kts 173°
2026-04-23 19:07 41.85435 14.01429 23020 ft 313 kts 173°
2026-04-23 19:08 41.83265 14.01580 22546 ft 311 kts 173°
2026-04-23 19:08 41.81109 14.01730 22092 ft 309 kts 173°
2026-04-23 19:08 41.78970 14.01879 21619 ft 307 kts 173°
2026-04-23 19:08 41.76851 14.02025 21165 ft 304 kts 173°
2026-04-23 19:09 41.74746 14.02171 20702 ft 302 kts 173°
2026-04-23 19:09 41.72659 14.02319 20258 ft 299 kts 173°
2026-04-23 19:09 41.70588 14.02464 19815 ft 297 kts 173°
2026-04-23 19:09 41.68529 14.02607 19385 ft 295 kts 173°
2026-04-23 19:10 41.66483 14.02749 18972 ft 292 kts 173°
2026-04-23 19:10 41.64487 14.02887 18570 ft 290 kts 173°
2026-04-23 19:10 41.62469 14.02933 18071 ft 290 kts 178°
2026-04-23 19:10 41.60463 14.02739 17601 ft 289 kts 183°
2026-04-23 19:11 41.58474 14.02398 17122 ft 287 kts 185°
2026-04-23 19:11 41.56500 14.02024 16651 ft 285 kts 186°
2026-04-23 19:11 41.54544 14.01643 16185 ft 283 kts 185°
2026-04-23 19:11 41.52603 14.01267 15727 ft 281 kts 186°
2026-04-23 19:12 41.51325 14.01023 15433 ft 280 kts 186°
2026-04-23 19:12 41.48749 14.00538 14844 ft 278 kts 186°
2026-04-23 19:12 41.46842 14.00181 14397 ft 276 kts 186°
2026-04-23 19:12 41.44944 13.99828 13966 ft 274 kts 185°
2026-04-23 19:13 41.43695 13.99740 13637 ft 269 kts 172°
2026-04-23 19:13 41.41895 14.00280 13204 ft 261 kts 159°
2026-04-23 19:13 41.40218 14.00981 13148 ft 245 kts 157°
2026-04-23 19:13 41.38621 14.01684 13124 ft 240 kts 156°
2026-04-23 19:14 41.37026 14.02399 13128 ft 243 kts 156°
2026-04-23 19:14 41.35410 14.03097 13141 ft 245 kts 158°
2026-04-23 19:14 41.33776 14.03773 13145 ft 247 kts 158°
2026-04-23 19:14 41.32129 14.04438 13146 ft 248 kts 158°
2026-04-23 19:15 41.30471 14.05098 13074 ft 252 kts 159°
2026-04-23 19:15 41.28763 14.05776 12822 ft 260 kts 159°
2026-04-23 19:15 41.27009 14.06465 12564 ft 264 kts 159°
2026-04-23 19:15 41.25237 14.07160 12304 ft 267 kts 159°
2026-04-23 19:16 41.23453 14.07856 12054 ft 267 kts 159°
2026-04-23 19:16 41.21670 14.08555 11799 ft 267 kts 159°
2026-04-23 19:16 41.19889 14.09256 11557 ft 267 kts 160°
2026-04-23 19:17 41.16348 14.10654 11063 ft 264 kts 160°
2026-04-23 19:17 41.14611 14.11341 10815 ft 263 kts 160°
2026-04-23 19:17 41.12859 14.12034 10573 ft 262 kts 160°
2026-04-23 19:17 41.11116 14.12724 10327 ft 261 kts 160°
2026-04-23 19:18 41.09371 14.13423 10174 ft 264 kts 159°
2026-04-23 19:18 41.07610 14.14139 10151 ft 264 kts 159°
2026-04-23 19:18 41.05851 14.14842 10139 ft 264 kts 160°
2026-04-23 19:18 41.04091 14.15536 10134 ft 263 kts 160°
2026-04-23 19:19 41.00582 14.16911 10132 ft 263 kts 160°
2026-04-23 19:19 40.98836 14.17596 10135 ft 263 kts 160°
2026-04-23 19:20 40.95326 14.18974 10136 ft 263 kts 160°
2026-04-23 19:20 40.93571 14.19663 10134 ft 263 kts 160°
2026-04-23 19:20 40.91820 14.20351 10134 ft 263 kts 160°
2026-04-23 19:20 40.90067 14.21039 10133 ft 263 kts 160°
2026-04-23 19:21 40.88331 14.21721 10142 ft 263 kts 160°
2026-04-23 19:21 40.84719 14.23136 9652 ft 276 kts 160°
2026-04-23 19:21 40.82866 14.23861 9388 ft 278 kts 160°
2026-04-23 19:22 40.81005 14.24596 9132 ft 279 kts 160°
2026-04-23 19:22 40.79141 14.25332 8868 ft 279 kts 160°
2026-04-23 19:22 40.75428 14.26784 8352 ft 277 kts 160°
2026-04-23 19:23 40.73580 14.27508 8096 ft 276 kts 160°
2026-04-23 19:23 40.71742 14.28228 7842 ft 275 kts 160°
2026-04-23 19:23 40.69937 14.28933 7597 ft 273 kts 161°
2026-04-23 19:24 40.66304 14.30350 7110 ft 271 kts 161°
2026-04-23 19:24 40.64504 14.31051 6862 ft 269 kts 161°
2026-04-23 19:24 40.60926 14.32445 6363 ft 267 kts 161°
2026-04-23 19:25 40.57310 14.33252 5999 ft 261 kts 181°
2026-04-23 19:25 40.53740 14.32563 5729 ft 257 kts 188°
2026-04-23 19:26 40.50211 14.31858 5469 ft 256 kts 188°
2026-04-23 19:26 40.48452 14.31504 5331 ft 255 kts 188°
2026-04-23 19:27 40.45004 14.31933 5079 ft 249 kts 155°
2026-04-23 19:27 40.40985 14.35985 4693 ft 243 kts 138°
2026-04-23 19:28 40.38387 14.38762 4443 ft 241 kts 137°
2026-04-23 19:28 40.35956 14.41734 4192 ft 235 kts 121°
2026-04-23 19:29 40.35245 14.43627 4061 ft 229 kts 104°
2026-04-23 19:29 40.35115 14.47616 3987 ft 215 kts 74°
2026-04-23 19:30 40.36459 14.50980 3989 ft 207 kts 47°
2026-04-23 19:30 40.37412 14.52395 3987 ft 207 kts 49°
2026-04-23 19:30 40.39248 14.55296 3985 ft 206 kts 49°
2026-04-23 19:31 40.40167 14.56736 3991 ft 206 kts 49°
2026-04-23 19:31 40.41088 14.58171 3996 ft 206 kts 49°
2026-04-23 19:31 40.41996 14.59587 3987 ft 205 kts 49°
2026-04-23 19:31 40.42897 14.61000 3989 ft 197 kts 49°
2026-04-23 19:32 40.43802 14.62312 3993 ft 190 kts 45°
2026-04-23 19:32 40.44730 14.63533 3987 ft 187 kts 44°
2026-04-23 19:32 40.45645 14.64735 3991 ft 186 kts 45°
2026-04-23 19:32 40.46550 14.65942 3999 ft 185 kts 45°
2026-04-23 19:33 40.47446 14.67149 4007 ft 185 kts 45°
2026-04-23 19:33 40.48315 14.68340 4002 ft 174 kts 46°
2026-04-23 19:33 40.49780 14.70577 3842 ft 157 kts 51°
2026-04-23 19:34 40.50460 14.71714 3617 ft 158 kts 51°
2026-04-23 19:34 40.51136 14.72850 3395 ft 157 kts 51°
2026-04-23 19:34 40.52466 14.75095 2951 ft 155 kts 51°
2026-04-23 19:35 40.53130 14.76216 2735 ft 155 kts 51°
2026-04-23 19:35 40.53790 14.77339 2514 ft 155 kts 51°
2026-04-23 19:35 40.54452 14.78460 2294 ft 155 kts 51°
2026-04-23 19:35 40.55113 14.79577 2083 ft 155 kts 51°
2026-04-23 19:36 40.55773 14.80698 1869 ft 152 kts 50°
2026-04-23 19:36 40.56399 14.81756 1661 ft 141 kts 50°
2026-04-23 19:36 40.56984 14.82736 1466 ft 135 kts 50°
2026-04-23 19:36 40.57543 14.83730 1262 ft 131 kts 53°
2026-04-23 19:37 40.58080 14.84682 1061 ft 127 kts 49°
2026-04-23 19:37 40.58620 14.85560 883 ft 123 kts 52°
2026-04-23 19:37 40.59122 14.86431 721 ft 116 kts 51°
2026-04-23 19:37 40.59592 14.87211 628 ft 95 kts 51°
2026-04-23 19:38 40.59976 14.87858 490 ft 88 kts 48°
2026-04-23 19:38 40.60356 14.88488 372 ft 84 kts 50°
2026-04-23 19:38 40.60711 14.89091 259 ft 83 kts 49°
2026-04-23 19:38 40.61057 14.89692 151 ft 81 kts 48°
2026-04-23 19:39 40.61396 14.90252 85 ft 69 kts 49°
2026-04-23 19:39 40.61653 14.90680 95 ft 51 kts 52°
2026-04-23 19:39 40.61849 14.91010 106 ft 36 kts 52°
2026-04-23 19:39 40.61963 14.91202 111 ft 23 kts 52°
2026-04-23 19:40 40.62071 14.91385 112 ft 27 kts 54°
2026-04-23 19:40 40.62109 14.91541 117 ft 16 kts 79°
2026-04-23 19:40 40.62135 14.91692 119 ft 16 kts 76°
2026-04-23 19:40 40.62101 14.91795 119 ft 13 kts 145°
2026-04-23 19:41 40.62066 14.91877 120 ft 6 kts 97°
2026-04-23 19:41 40.62058 14.91952 121 ft 12 kts 83°
2026-04-23 19:41 40.62091 14.92012 122 ft 5 kts 22°
2026-04-23 19:41 40.62119 14.91999 122 ft 5 kts 328°
2026-04-23 19:42 40.62140 14.91979 124 ft 0 kts 326°